Regional Weather Roundup
Issued by NWS

Home | Current Version | Previous Version | Graphics & Text | Print | Product List | Glossary On
Versions: 1 2 3 4 5 6 7 8 9 10 11 12 13 14 15 16 17 18 19 20 21 22 23 24 25 26 27 28 29 30 31 32 33 34 35 36 37 38 39 40 41 42 43 44 45 46 47 48 49 50
000
ASUS43 KDTX 080010
RWRMI
MICHIGAN HOURLY REGIONAL WEATHER ROUNDUP
NATIONAL WEATHER SERVICE DETROIT/PONTIAC MI
800 PM EDT TUE JUL 07 2015

NOTE: "FAIR" INDICATES FEW OR NO CLOUDS BELOW 12,000 FEET WITH NO
SIGNIFICANT WEATHER AND/OR OBSTRUCTION TO VISIBILITY.

MIZ047>049-052>055-059>063-066>070-074>076-081>083-080100-
SOUTHEAST LOWER MICHIGAN

CITY           SKY/WX    TMP DP  RH WIND       PRES   REMARKS
ADRIAN         CLOUDY    67  60  78 N14       29.98R
6HR MIN TEMP:  66; 6HR MAX TEMP:  75; 6HR PCP:  0.03;

ALMA           CLOUDY    66  51  57 N6        30.01R
ANN ARBOR      CLOUDY    64  57  78 N14G22    29.98R
BAD AXE        CLOUDY    61  54  77 N7        29.99R
CARO           CLOUDY    63  58  81 N3        29.98R
DETROIT CITY   CLOUDY    65  59  81 N12G20    29.96R
6HR MIN TEMP:  65; 6HR MAX TEMP:  76; 6HR PCP:  0.13;

DETROIT        CLOUDY    66  59  78 NW13G23   29.96R
6HR MIN TEMP:  66; 6HR MAX TEMP:  76; 6HR PCP:  0.12;

FLINT          CLOUDY    66  56  70 N6        29.99R
6HR MIN TEMP:  64; 6HR MAX TEMP:  68; 6HR PCP: TRACE;

GROSSE ILE     DRIZZLE   66  63  88 N7        29.94R
HILLSDALE      CLOUDY    65  60  83 N12       29.99R
6HR MIN TEMP:  65; 6HR MAX TEMP:  69;

HOWELL         CLOUDY    64  56  77 N3        30.00R
6HR MIN TEMP:  63; 6HR MAX TEMP:  65;


CITY           SKY/WX    TMP DP  RH WIND       PRES   REMARKS
JACKSON        CLOUDY    64  55  72 N7        29.99R
6HR MIN TEMP:  63; 6HR MAX TEMP:  68;

LAMBERTVILLE   CLOUDY    67  61  81 N8G16     29.97R
6HR MIN TEMP:  67; 6HR MAX TEMP:  76;

LANSING        MOSUNNY   66  52  60 N7        30.00R
6HR MIN TEMP:  65; 6HR MAX TEMP:  69;

LAPEER         CLOUDY    60  58  94 NE3       29.99R
MASON          CLOUDY    62  54  73 N7        30.00R
MONROE         RAIN      65  62  89 N8        29.95R
MT. CLEMENS    CLOUDY    63  61  94 N8        29.95R
6HR MIN TEMP:  62; 6HR MAX TEMP:  74; 6HR PCP:  0.10;

PONTIAC        CLOUDY    63  58  83 N9        29.98R
6HR MIN TEMP:  62; 6HR MAX TEMP:  66; 6HR PCP: TRACE;

PORT HOPE        N/A     62  55  77 VRB7      29.97R
6HR MIN TEMP:  62; 6HR MAX TEMP:  63;

PORT HURON     CLOUDY    59  57  94 N7        29.98R
TRI CITIES     CLOUDY    67  52  58 N8        30.00R
6HR MIN TEMP:  67; 6HR MAX TEMP:  70;

MIDLAND        FAIR      65  51  59 NW6       29.99R
TROY           CLOUDY    65  60  83 N10G17    29.99R
SAGINAW HB     CLOUDY    64  52  63 NW8       29.99R
$$
MIZ043>046-050>051-056>058-064>065-071>073-077>080-080100-
SOUTHWEST LOWER MICHIGAN

CITY           SKY/WX    TMP DP  RH WIND       PRES   REMARKS
BATTLE CREEK   MOSUNNY   68  56  65 N8        30.00R
6HR MIN TEMP:  68; 6HR MAX TEMP:  73;

BENTON HARBOR  SUNNY     61  49  64 N8        30.03R
6HR MIN TEMP:  61; 6HR MAX TEMP:  65;

BIG RAPIDS     SUNNY     64  46  52 N8        30.02R
6HR MIN TEMP:  64; 6HR MAX TEMP:  67;

COLDWATER      PTSUNNY   65  56  73 N8G17     29.99R
6HR MIN TEMP:  64; 6HR MAX TEMP:  69;

FREMONT        FAIR      63  47  56 N12       30.03R
HOLLAND        SUNNY     64  48  56 NW12G17   30.03R
6HR MIN TEMP:  64; 6HR MAX TEMP:  69;

GRAND RAPIDS   MOSUNNY   68  51  54 N9        30.00R
6HR MIN TEMP:  68; 6HR MAX TEMP:  72;

IONIA          FAIR      66  53  62 N7        30.00R
KALAMAZOO      MOSUNNY   69  54  58 NW13      29.99R
6HR MIN TEMP:  69; 6HR MAX TEMP:  74;

LUDINGTON      SUNNY     61  47  60 N6        30.07R
6HR MIN TEMP:  61; 6HR MAX TEMP:  64;

MARSHALL       MOSUNNY   66  56  70 NE3       29.99R
MOUNT PLEASANT SUNNY     65  48  55 NW5       30.01R
6HR MIN TEMP:  63; 6HR MAX TEMP:  67;

MUSKEGON       MOSUNNY   65  49  56 N14       30.03R
6HR MIN TEMP:  65; 6HR MAX TEMP:  71;

SOUTH HAVEN    SUNNY     60  49  67 N14G21    30.03R
$$
MIZ016>042-080100-
NORTHERN LOWER MICHIGAN

CITY           SKY/WX    TMP DP  RH WIND       PRES   REMARKS
ALPENA         MOSUNNY   64  48  56 N12       30.00R
6HR MIN TEMP:  62; 6HR MAX TEMP:  69;

BEAVER ISLAND  SUNNY     61  49  65 NW6       30.06R
6HR MIN TEMP:  61; 6HR MAX TEMP:  64;

BELLAIRE       SUNNY     61  48  62 N7        30.05R
6HR MIN TEMP:  61; 6HR MAX TEMP:  65;

CADILLAC       SUNNY     58  47  66 N8        30.04R
CHARLEVOIX     SUNNY     60  50  67 N8        30.08R
6HR MIN TEMP:  60; 6HR MAX TEMP:  64;

FRANKFORT      SUNNY     63  45  51 N5        30.06R
GAYLORD        MOSUNNY   60  49  66 VRB5      30.03R
6HR MIN TEMP:  59; 6HR MAX TEMP:  64;

GRAYLING       MOSUNNY   59  47  65 NW9       30.04R
6HR MIN TEMP:  59; 6HR MAX TEMP:  65;

HARBOR SPRINGS SUNNY     61  48  63 NW6       30.04R
HOUGHTON LAKE  MOSUNNY   62  47  57 NW13      30.02R
6HR MIN TEMP:  61; 6HR MAX TEMP:  67;

MANISTEE       SUNNY     63  46  55 N7        30.07R
OSCODA         CLOUDY    66  53  63 NE5       29.97R
PELLSTON       SUNNY     63  48  58 N10       30.03R
6HR MIN TEMP:  63; 6HR MAX TEMP:  66;

ROGERS CITY    SUNNY     61  51  70 NW8G18    30.02R
TRAVERSE CITY  MOSUNNY   62  48  60 N9        30.04R
6HR MIN TEMP:  62; 6HR MAX TEMP:  67;

$$
MIZ007>008-015-080100-
EASTERN UPPER MICHIGAN

CITY           SKY/WX    TMP DP  RH WIND       PRES   REMARKS
KINROSS        SUNNY     57  46  67 NW14G24   30.02R
6HR MIN TEMP:  57; 6HR MAX TEMP:  61;

MACKINAC ISLAN SUNNY     62  49  64 N10       30.02R
6HR MIN TEMP:  62; 6HR MAX TEMP:  65;

NEWBERRY       SUNNY     59  45  60 NW6       30.05R
6HR MIN TEMP:  56; 6HR MAX TEMP:  61;

S. S. MARIE    SUNNY     57  44  62 W13G18    30.03R
6HR MIN TEMP:  57; 6HR MAX TEMP:  62;

MUNISING         N/A     61  47  59 NW9       30.07S
6HR MIN TEMP:  54; 6HR MAX TEMP:  62;

$$
MIZ004>006-011>014-085-080100-
CENTRAL UPPER MICHIGAN

CITY           SKY/WX    TMP DP  RH WIND       PRES   REMARKS
MANISTIQUE     SUNNY     62  43  50 NW13G18   30.05R
6HR MIN TEMP:  62; 6HR MAX TEMP:  64;

ESCANABA       SUNNY     64  39  39 N7G17     30.06R
6HR MIN TEMP:  63; 6HR MAX TEMP:  66;

MENOMINEE      MOSUNNY   68  46  45 N9        30.06R
6HR MIN TEMP:  63; 6HR MAX TEMP:  68;

SAWYER-GWINN   SUNNY     64  37  36 N10G16    30.09S
$$
MIZ001>003-009>011-084-080100-
WESTERN UPPER MICHIGAN

CITY           SKY/WX    TMP DP  RH WIND       PRES   REMARKS
IRON MOUNTAIN  SUNNY     67  45  45 N10       30.07S
6HR MIN TEMP:  63; 6HR MAX TEMP:  69;

HOUGHTON       SUNNY     64  46  52 W10       30.08S
6HR MIN TEMP:  62; 6HR MAX TEMP:  66;

COPPER HARBOR    N/A     60  49  66 N7        30.06S
6HR MIN TEMP:  59; 6HR MAX TEMP:  64;

IRONWOOD       SUNNY     64  41  42 CALM      30.08S
6HR MIN TEMP:  61; 6HR MAX TEMP:  66;

$$

ABBREVIATIONS USED IN REMARKS
   TC - TEMPERATURE IN CELSIUS
  WCI - WIND CHILL INDEX
   HX - HEAT INDEX
  VSB - VISIBILITY




USA.gov is the U.S. government's official web portal to all federal, state and local government web resources and services.